Millville, NJ

10:36 PM EDT on September 28, 2016 (GMT -0400)
Millville Municipal

Weather History for KMIV - March, 2012

Change the Weather History Date:

Wednesday, March 7, 2012

  Actual Average Record
Temperature  
Mean Temperature 50 °F -  
Max Temperature 62 °F 48 °F 74 °F (1974)
Min Temperature 37 °F 28 °F 0 °F (2015)
Degree Days  
Heating Degree Days 16    
Moisture  
Dew Point 36 °F    
Average Humidity 61    
Maximum Humidity 79    
Minimum Humidity 32    
Precipitation  
Precipitation 0.00 in - - ()
Sea Level Pressure  
Sea Level Pressure 30.49 in    
Wind  
Wind Speed 6 mph (SSW)    
Max Wind Speed 10 mph    
Max Gust Speed 23 mph    
Visibility 10 miles    
Events      
Averages and records for this station are not official NWS values.
T = Trace of Precipitation, MM = Missing Value Source: NWS Daily Summary

Daily Weather History Graph

Daily Weather History Graph

Search for Another Location

Airport or City:

Trip Planner

Search our weather history database for the weather conditions in past years. The results will help you decide how hot, cold, wet, or windy it might be!

Date:

Astronomy

Mar. 07, 2012 Rise Set
Actual Time 6:23 AM EST 5:59 PM EST
Civil Twilight 5:56 AM EST 6:26 PM EST
Nautical Twilight 5:25 AM EST 6:57 PM EST
Astronomical Twilight 4:54 AM EST 7:28 PM EST
Moon 5:32 PM EST (3/7) 5:32 AM EST (3/7)
Length of Visible Light 12h 29m
Length of Day
11h 36m
Waxing Gibbous, 99% of the Moon is Illuminated
Mar 7
Waxing Gibbous
Mar 8
Full
Mar 14
Last Quarter
Mar 22
New
Mar 30
First Quarter

Hourly Weather History & Observations

Time (EST) Temp. Windchill Dew Point Humidity Pressure Visibility Wind Dir Wind Speed Gust Speed Precip Events Conditions
12:54 AM 37.9 °F 34.4 °F 28.9 °F 70% 30.61 in 10.0 mi SSW 4.6 mph - N/A   Clear
1:54 AM 39.0 °F 34.0 °F 30.0 °F 70% 30.60 in 10.0 mi Variable 6.9 mph - N/A   Clear
2:54 AM 39.0 °F 34.8 °F 28.9 °F 67% 30.57 in 10.0 mi Variable 5.8 mph - N/A   Clear
3:54 AM 39.0 °F 34.8 °F 30.0 °F 70% 30.56 in 10.0 mi Variable 5.8 mph - N/A   Clear
4:54 AM 39.0 °F 34.8 °F 30.9 °F 73% 30.57 in 10.0 mi Variable 5.8 mph - N/A   Clear
5:54 AM 39.0 °F 34.8 °F 32.0 °F 76% 30.56 in 10.0 mi SSW 5.8 mph - N/A   Clear
6:54 AM 39.0 °F 36.8 °F 33.1 °F 79% 30.57 in 10.0 mi Variable 3.5 mph - N/A   Clear
7:54 AM 44.1 °F 40.8 °F 33.1 °F 65% 30.57 in 10.0 mi Variable 5.8 mph - N/A   Clear
8:54 AM 45.0 °F 40.6 °F 34.0 °F 65% 30.57 in 10.0 mi SSW 8.1 mph 17.3 mph N/A   Clear
9:54 AM 48.9 °F - 33.1 °F 54% 30.57 in 10.0 mi Variable 6.9 mph - N/A   Clear
10:54 AM 53.1 °F - 33.1 °F 47% 30.54 in 10.0 mi SW 8.1 mph - N/A   Clear
11:54 AM 57.0 °F - 30.9 °F 37% 30.51 in 10.0 mi SSW 10.4 mph 23.0 mph N/A   Clear
12:54 PM 61.0 °F - 30.9 °F 32% 30.47 in 10.0 mi SW 10.4 mph 21.9 mph N/A   Clear
1:54 PM 61.0 °F - 33.1 °F 35% 30.45 in 10.0 mi SW 9.2 mph 17.3 mph N/A   Clear
2:54 PM 62.1 °F - 36.0 °F 38% 30.43 in 10.0 mi SW 9.2 mph 16.1 mph N/A   Clear
3:54 PM 62.1 °F - 37.9 °F 41% 30.42 in 10.0 mi SSW 8.1 mph - N/A   Clear
4:54 PM 60.1 °F - 41.0 °F 49% 30.40 in 10.0 mi Variable 6.9 mph - N/A   Clear
5:54 PM 57.9 °F - 43.0 °F 58% 30.40 in 10.0 mi Variable 3.5 mph - N/A   Clear
6:54 PM 52.0 °F - 43.0 °F 71% 30.40 in 10.0 mi Variable 3.5 mph - N/A   Clear
7:54 PM 52.0 °F - 44.1 °F 74% 30.40 in 10.0 mi Variable 4.6 mph - N/A   Clear
8:54 PM 52.0 °F - 44.1 °F 74% 30.40 in 10.0 mi Variable 4.6 mph - N/A   Clear
9:54 PM 53.1 °F - 44.1 °F 71% 30.40 in 10.0 mi South 5.8 mph - N/A   Clear
10:54 PM 52.0 °F - 44.1 °F 74% 30.38 in 10.0 mi Variable 6.9 mph - N/A   Clear
11:54 PM 51.1 °F - 44.1 °F 77% 30.37 in 10.0 mi Variable 4.6 mph - N/A   Clear